DW9161 Weather Reports


Display with metric or nautical units.
time (UTC)temp
F
wind
direction
speed
MPH
gust
MPH
rain 1hr
in
rain 24hr
in
rain mn
in
humidity
%
barometer
mb
20260902194534 96 176 4.0 12.0 0.00 0.00 0.00 47 1011.1
20260902194030 95 237 5.0 12.0 0.00 0.00 0.00 48 1011.2
20260902193547 94 196 5.0 10.0 0.00 0.00 0.00 49 1011.2
20260902193041 94 201 4.0 13.0 0.00 0.00 0.00 48 1011.1
20260902192537 94 191 6.0 15.0 0.00 0.00 0.00 47 1011.2
20260902192033 94 188 9.0 15.0 0.00 0.00 0.00 45 1011.2
20260902191549 95 158 8.0 15.0 0.00 0.00 0.00 47 1011.3
20260902191044 95 214 6.0 14.0 0.00 0.00 0.00 46 1011.4
20260902190552 95 200 5.0 13.0 0.00 0.00 0.00 47 1011.4
20260902190049 94 175 7.0 13.0 0.00 0.00 0.00 48 1011.4
20260902185606 94 191 5.0 13.0 0.00 0.00 0.00 47 1011.5
20260902185104 94 198 3.0 13.0 0.00 0.00 0.00 48 1011.5
20260902184539 94 226 6.0 15.0 0.00 0.00 0.00 48 1011.6
20260902184036 94 211 4.0 10.0 0.00 0.00 0.00 49 1011.7
20260902183532 93 158 4.0 8.0 0.00 0.00 0.00 52 1011.7
20260902183048 93 193 4.0 13.0 0.00 0.00 0.00 49 1011.8
20260902182544 94 259 6.0 14.0 0.00 0.00 0.00 48 1011.9
20260902182041 94 198 6.0 12.0 0.00 0.00 0.00 48 1011.8
20260902181557 94 244 5.0 9.0 0.00 0.00 0.00 50 1011.8
20260902181033 93 203 4.0 9.0 0.00 0.00 0.00 50 1012.0
20260902180604 93 219 5.0 11.0 0.00 0.00 0.00 51 1011.9
20260902180044 93 191 5.0 15.0 0.00 0.00 0.00 50 1012.1
20260902175558 93 245 7.0 15.0 0.00 0.00 0.00 49 1012.0
20260902175033 92 199 3.0 10.0 0.00 0.00 0.00 51 1012.0
20260902174548 91 203 2.0 8.0 0.00 0.00 0.00 53 1012.1
20260902174044 91 198 5.0 10.0 0.00 0.00 0.00 50 1012.3
20260902173540 91 210 4.0 12.0 0.00 0.00 0.00 50 1012.3
20260902173037 92 214 6.0 12.0 0.00 0.00 0.00 50 1012.4
20260902172533 92 186 3.0 10.0 0.00 0.00 0.00 52 1012.4
20260902172049 92 199 4.0 9.0 0.00 0.00 0.00 52 1012.5
20260902171546 91 207 2.0 9.0 0.00 0.00 0.00 52 1012.5
20260902171042 91 163 4.0 9.0 0.00 0.00 0.00 51 1012.6
20260902170550 91 201 4.0 11.0 0.00 0.00 0.00 51 1012.6
20260902170049 90 238 6.0 11.0 0.00 0.00 0.00 52 1012.6
20260902165544 90 188 3.0 9.0 0.00 0.00 0.00 54 1012.6
20260902165041 89 200 4.0 10.0 0.00 0.00 0.00 54 1012.5
20260902164536 89 174 4.0 11.0 0.00 0.00 0.00 54 1012.6
20260902164032 89 178 6.0 11.0 0.00 0.00 0.00 55 1012.6
20260902163531 88 174 3.0 9.0 0.00 0.00 0.00 55 1012.5
20260902163047 88 195 5.0 9.0 0.00 0.00 0.00 55 1012.5
20260902162605 87 197 3.0 8.0 0.00 0.00 0.00 60 1012.6
20260902162041 86 205 4.0 8.0 0.00 0.00 0.00 62 1012.6
20260902161536 85 186 3.0 8.0 0.00 0.00 0.00 64 1012.6
20260902161032 85 190 2.0 6.0 0.00 0.00 0.00 64 1012.6
20260902160603 84 192 3.0 6.0 0.00 0.00 0.00 64 1012.6
20260902160038 84 215 3.0 7.0 0.00 0.00 0.00 66 1012.6
20260902155534 84 174 4.0 8.0 0.00 0.00 0.00 63 1012.6
20260902155032 84 195 5.0 8.0 0.00 0.00 0.00 64 1012.6
20260902154547 84 195 4.0 8.0 0.00 0.00 0.00 66 1012.6
20260902154044 84 223 4.0 12.0 0.00 0.00 0.00 65 1012.6
20260902153539 83 207 5.0 12.0 0.00 0.00 0.00 64 1012.6
20260902153034 83 184 4.0 11.0 0.00 0.00 0.00 64 1012.5
20260902152549 83 186 3.0 10.0 0.00 0.00 0.00 64 1012.6
20260902152045 83 192 4.0 10.0 0.00 0.00 0.00 65 1012.6
20260902151540 83 199 5.0 10.0 0.00 0.00 0.00 64 1012.6
20260902151037 82 221 5.0 9.0 0.00 0.00 0.00 65 1012.6
20260902150609 82 188 5.0 8.0 0.00 0.00 0.00 65 1012.6
20260902150045 81 191 4.0 7.0 0.00 0.00 0.00 69 1012.6
20260902145542 80 187 1.0 5.0 0.00 0.00 0.00 70 1012.6
20260902145040 79 189 2.0 5.0 0.00 0.00 0.00 70 1012.5
20260902144537 78 184 2.0 7.0 0.00 0.00 0.00 70 1012.5
20260902144031 78 200 2.0 7.0 0.00 0.00 0.00 71 1012.6
20260902143547 78 142 2.0 6.0 0.00 0.00 0.00 71 1012.6
20260902143104 78 207 2.0 6.0 0.00 0.00 0.00 70 1012.7
20260902142538 78 193 2.0 5.0 0.00 0.00 0.00 68 1012.6
20260902142034 78 196 2.0 8.0 0.00 0.00 0.00 68 1012.6
20260902141549 78 148 2.0 8.0 0.00 0.00 0.00 68 1012.7
20260902141044 78 182 2.0 6.0 0.00 0.00 0.00 69 1012.8
20260902140552 78 209 3.0 6.0 0.00 0.00 0.00 69 1012.8
20260902140050 79 202 2.0 4.0 0.00 0.00 0.00 68 1012.8
20260902135545 79 203 2.0 4.0 0.00 0.00 0.00 67 1012.7
20260902135041 79 203 1.0 4.0 0.00 0.00 0.00 67 1012.9
20260902134537 79 213 1.0 3.0 0.00 0.00 0.00 68 1012.9
20260902134033 79 213 1.0 3.0 0.00 0.00 0.00 67 1012.9
20260902133611 79 221 1.0 3.0 0.00 0.00 0.00 66 1013.0
20260902133045 79 222 1.0 3.0 0.00 0.00 0.00 67 1013.0
20260902132540 78 252 2.0 4.0 0.00 0.00 0.00 68 1013.2
20260902132036 78 265 2.0 4.0 0.00 0.00 0.00 69 1013.1
20260902131531 78 344 0.0 2.0 0.00 0.00 0.00 68 1013.3
20260902131032 78 346 1.0 2.0 0.00 0.00 0.00 69 1013.2
20260902130559 77 346 1.0 2.0 0.00 0.00 0.00 69 1013.0
20260902130036 77 357 1.0 2.0 0.00 0.00 0.00 70 1012.9
20260902125553 76 357 0.0 3.0 0.00 0.00 0.00 70 1013.1
20260902125046 76 357 1.0 3.0 0.00 0.00 0.00 70 1012.9
20260902124542 76 357 2.0 3.0 0.00 0.00 0.00 70 1012.9
20260902124038 76 357 1.0 3.0 0.00 0.00 0.00 70 1013.0
20260902123534 76 357 2.0 3.0 0.00 0.00 0.00 70 1012.9
20260902123031 76 357 1.0 3.0 0.00 0.00 0.00 70 1012.9
20260902122608 76 357 0.0 2.0 0.00 0.00 0.00 70 1012.9
20260902122042 76 357 0.0 3.0 0.00 0.00 0.00 70 1012.9
20260902121539 76 357 1.0 3.0 0.00 0.00 0.00 70 1012.9
20260902121056 75 327 1.0 3.0 0.00 0.00 0.00 70 1012.8
20260902120629 75 327 2.0 3.0 0.00 0.00 0.00 71 1012.7
20260902120045 74 326 0.0 2.0 0.00 0.00 0.00 74 1012.6
20260902115542 74 326 1.0 2.0 0.00 0.00 0.00 74 1012.6
20260902115057 74 326 2.0 2.0 0.00 0.00 0.00 76 1012.5
20260902114532 74 326 1.0 3.0 0.00 0.00 0.00 76 1012.6
20260902114048 74 326 1.0 3.0 0.00 0.00 0.00 75 1012.7
20260902113544 74 75 0.0 2.0 0.00 0.00 0.00 74 1012.7
20260902113059 75 75 1.0 3.0 0.00 0.00 0.00 72 1012.6
20260902112534 75 75 0.0 3.0 0.00 0.00 0.00 71 1012.6
20260902112111 76 75 1.0 3.0 0.00 0.00 0.00 70 1012.6
20260902111608 76 75 1.0 2.0 0.00 0.00 0.00 69 1012.6
20260902111043 76 75 1.0 2.0 0.00 0.00 0.00 68 1012.6
20260902110551 76 75 0.0 1.0 0.00 0.00 0.00 68 1012.6
20260902110048 77 75 0.0 1.0 0.00 0.00 0.00 67 1012.5
20260902105544 77 75 1.0 2.0 0.00 0.00 0.00 67 1012.5
20260902105044 76 75 0.0 2.0 0.00 0.00 0.00 68 1012.5
20260902104539 76 75 1.0 3.0 0.00 0.00 0.00 68 1012.4
20260902104035 76 75 2.0 4.0 0.00 0.00 0.00 68 1012.5
20260902103531 76 75 1.0 4.0 0.00 0.00 0.00 69 1012.6
20260902103109 76 272 0.0 1.0 0.00 0.00 0.00 69 1012.7
20260902102543 76 272 0.0 1.0 0.00 0.00 0.00 69 1012.8
20260902102059 76 272 0.0 0.0 0.00 0.00 0.00 69 1012.8
20260902101535 77 272 0.0 1.0 0.00 0.00 0.00 68 1012.8
20260902101030 77 272 0.0 2.0 0.00 0.00 0.00 66 1012.8
20260902100624 77 272 1.0 2.0 0.00 0.00 0.00 65 1012.9
20260902100038 77 272 0.0 2.0 0.00 0.00 0.00 66 1012.9
20260902095533 77 272 1.0 2.0 0.00 0.00 0.00 65 1012.9
20260902095030 77 272 1.0 3.0 0.00 0.00 0.00 66 1012.8
20260902094545 77 272 1.0 3.0 0.00 0.00 0.00 66 1012.8
20260902094103 77 330 0.0 4.0 0.00 0.00 0.00 66 1012.9
20260902093537 77 329 2.0 4.0 0.00 0.00 0.00 66 1013.0
20260902093035 78 329 1.0 2.0 0.00 0.00 0.00 66 1013.0
20260902092548 78 329 1.0 2.0 0.00 0.00 0.00 66 1013.1
20260902092106 78 329 0.0 3.0 0.00 0.00 0.00 64 1013.1
20260902091540 78 329 1.0 3.0 0.00 0.00 0.00 63 1013.2
20260902091037 78 329 1.0 3.0 0.00 0.00 0.00 64 1013.1
20260902090609 78 329 1.0 3.0 0.00 0.00 0.00 64 1013.1
20260902090044 77 338 1.0 3.0 0.00 0.00 0.00 66 1012.9
20260902085544 76 338 2.0 4.0 0.00 0.00 0.00 69 1013.0
20260902085039 76 338 1.0 7.0 0.00 0.00 0.00 70 1013.0
20260902084555 76 347 3.0 7.0 0.00 0.00 0.00 71 1013.0
20260902084030 76 1 4.0 7.0 0.00 0.00 0.00 70 1013.1
20260902083546 76 335 1.0 3.0 0.00 0.00 0.00 71 1012.9
20260902083042 76 335 1.0 7.0 0.00 0.00 0.00 70 1012.9
20260902082558 76 346 4.0 7.0 0.00 0.00 0.00 70 1013.2
20260902082033 77 338 3.0 4.0 0.00 0.00 0.00 68 1013.1
20260902081549 77 200 0.0 3.0 0.00 0.00 0.00 67 1012.6
20260902081106 78 200 1.0 3.0 0.00 0.00 0.00 67 1012.5
20260902080554 78 200 1.0 3.0 0.00 0.00 0.00 67 1012.4
20260902080050 78 200 1.0 3.0 0.00 0.00 0.00 66 1012.4
20260902075547 78 200 1.0 2.0 0.00 0.00 0.00 66 1012.4
20260902075042 78 200 0.0 4.0 0.00 0.00 0.00 66 1012.3
20260902074559 78 199 1.0 4.0 0.00 0.00 0.00 66 1012.3
20260902074053 78 199 1.0 4.0 0.00 0.00 0.00 66 1012.3
20260902073548 78 207 1.0 4.0 0.00 0.00 0.00 66 1012.3
20260902073044 78 190 1.0 3.0 0.00 0.00 0.00 66 1012.3
20260902072540 78 190 1.0 4.0 0.00 0.00 0.00 66 1012.2
20260902072035 78 191 1.0 4.0 0.00 0.00 0.00 66 1012.2
20260902071531 78 186 1.0 4.0 0.00 0.00 0.00 66 1012.2
20260902071109 79 186 1.0 4.0 0.00 0.00 0.00 66 1012.2
20260902070554 79 186 1.0 4.0 0.00 0.00 0.00 66 1012.2
20260902070035 79 191 2.0 4.0 0.00 0.00 0.00 65 1012.1
20260902065549 79 191 2.0 5.0 0.00 0.00 0.00 66 1012.3
20260902065046 79 192 1.0 5.0 0.00 0.00 0.00 65 1012.2
20260902064546 79 188 1.0 5.0 0.00 0.00 0.00 66 1012.2
20260902064041 79 188 2.0 7.0 0.00 0.00 0.00 66 1012.2
20260902063537 79 196 2.0 7.0 0.00 0.00 0.00 66 1012.2
20260902063032 79 188 2.0 7.0 0.00 0.00 0.00 66 1012.2
20260902062547 79 197 3.0 5.0 0.00 0.00 0.00 65 1012.1
20260902062042 80 198 2.0 7.0 0.00 0.00 0.00 65 1012.0
20260902061116 80 195 1.0 6.0 0.00 0.00 0.00 64 1011.9
20260902060605 80 212 3.0 8.0 0.00 0.00 0.00 64 1011.9
20260902060040 81 190 2.0 8.0 0.00 0.00 0.00 64 1011.8
20260902055535 81 193 2.0 6.0 0.00 0.00 0.00 63 1011.8
20260902055052 81 175 2.0 6.0 0.00 0.00 0.00 63 1011.8
20260902054546 81 160 2.0 6.0 0.00 0.00 0.00 63 1011.8
20260902054042 81 145 2.0 6.0 0.00 0.00 0.00 63 1011.7
20260902053557 81 205 2.0 8.0 0.00 0.00 0.00 63 1011.8
20260902053032 81 203 2.0 6.0 0.00 0.00 0.00 63 1011.9
20260902052547 82 203 2.0 6.0 0.00 0.00 0.00 63 1011.9
20260902052044 82 191 2.0 6.0 0.00 0.00 0.00 62 1012.0
20260902051539 82 191 2.0 6.0 0.00 0.00 0.00 62 1012.0
20260902051056 82 179 3.0 6.0 0.00 0.00 0.00 62 1012.0
20260902050628 82 186 2.0 5.0 0.00 0.00 0.00 62 1012.0
20260902050035 82 199 2.0 5.0 0.00 0.00 0.00 62 1012.0
20260902045548 82 141 2.0 6.0 0.00 0.00 0.00 62 1012.0
20260902045046 83 150 2.0 7.0 0.00 0.00 0.00 62 1012.1
20260902044545 83 183 3.0 7.0 0.00 0.00 0.00 62 1012.0
20260902044105 83 137 3.0 7.0 0.00 0.00 0.00 61 1012.0
20260902043546 83 187 2.0 7.0 0.00 0.00 0.00 61 1012.0
20260902043043 83 204 2.0 7.0 0.00 0.00 0.00 61 1012.0
20260902042601 84 179 2.0 8.0 0.00 0.00 0.00 61 1012.0
20260902042038 84 169 3.0 8.0 0.00 0.00 0.00 61 1011.9
20260902041535 84 205 3.0 9.0 0.00 0.00 0.00 61 1012.0
20260902041032 84 188 3.0 7.0 0.00 0.00 0.00 61 1012.0
20260902040605 84 177 3.0 7.0 0.00 0.00 0.00 61 1012.1
20260902035538 84 195 2.0 8.0 0.00 0.00 0.00 62 1012.1
20260902035045 84 188 2.0 8.0 0.00 0.00 0.00 62 1012.2
20260902034541 84 188 2.0 4.0 0.00 0.00 0.00 63 1012.1
20260902034037 84 187 1.0 4.0 0.00 0.00 0.00 63 1012.1
20260902033535 85 180 1.0 7.0 0.00 0.00 0.00 62 1012.1
20260902033051 85 171 2.0 7.0 0.00 0.00 0.00 62 1012.1
20260902032609 85 184 3.0 6.0 0.00 0.00 0.00 62 1012.0
20260902032044 85 148 2.0 5.0 0.00 0.00 0.00 63 1012.1
20260902031601 85 144 2.0 5.0 0.00 0.00 0.00 63 1012.0
20260902031037 85 176 2.0 4.0 0.00 0.00 0.00 63 1012.0
20260902030631 85 200 2.0 4.0 0.00 0.00 0.00 63 1011.9
20260902030047 85 143 1.0 4.0 0.00 0.00 0.00 63 1011.9
20260902025543 85 188 2.0 4.0 0.00 0.00 0.00 64 1011.8
20260902025101 85 193 1.0 3.0 0.00 0.00 0.00 64 1011.7
20260902024537 85 197 1.0 2.0 0.00 0.00 0.00 64 1011.7
20260902024034 85 197 1.0 3.0 0.00 0.00 0.00 64 1011.6
20260902023535 86 197 1.0 3.0 0.00 0.00 0.00 63 1011.6
20260902023032 86 197 1.0 2.0 0.00 0.00 0.00 63 1011.5
20260902022609 86 197 1.0 5.0 0.00 0.00 0.00 63 1011.5
20260902022044 86 198 2.0 5.0 0.00 0.00 0.00 63 1011.4
20260902021601 86 196 1.0 3.0 0.00 0.00 0.00 62 1011.3
20260902021036 86 196 1.0 3.0 0.00 0.00 0.00 62 1011.2
20260902020631 87 196 1.0 3.0 0.00 0.00 0.00 61 1011.2
20260902020043 87 196 0.0 2.0 0.00 0.00 0.00 59 1011.2
20260902015539 87 196 1.0 3.0 0.00 0.00 0.00 59 1011.1
20260902015035 88 196 1.0 3.0 0.00 0.00 0.00 58 1011.0
20260902014550 88 196 0.0 1.0 0.00 0.00 0.00 58 1010.9
20260902014047 88 196 0.0 2.0 0.00 0.00 0.00 58 1010.8
20260902013542 88 196 0.0 2.0 0.00 0.00 0.00 57 1010.8
20260902013037 89 196 1.0 2.0 0.00 0.00 0.00 57 1010.8
20260902012556 89 197 1.0 2.0 0.00 0.00 0.00 56 1010.7
20260902012051 89 197 0.0 3.0 0.00 0.00 0.00 56 1010.6
20260902011547 89 197 1.0 4.0 0.00 0.00 0.00 55 1010.6
20260902011044 90 200 2.0 4.0 0.00 0.00 0.00 55 1010.6
20260902010613 90 205 2.0 5.0 0.00 0.00 0.00 55 1010.6
20260902010051 90 198 2.0 6.0 0.00 0.00 0.00 54 1010.5
20260902005609 91 181 1.0 4.0 0.00 0.00 0.00 54 1010.6
20260902005044 91 186 1.0 7.0 0.00 0.00 0.00 54 1010.6
20260902004539 91 185 1.0 7.0 0.00 0.00 0.00 53 1010.5
20260902004036 92 196 2.0 5.0 0.00 0.00 0.00 53 1010.6
20260902003535 92 170 1.0 5.0 0.00 0.00 0.00 52 1010.6
20260902003032 92 169 2.0 6.0 0.00 0.00 0.00 52 1010.6
20260902002549 93 195 2.0 6.0 0.00 0.00 0.00 51 1010.5
20260902002044 93 195 2.0 6.0 0.00 0.00 0.00 51 1010.6
20260902001540 93 190 3.0 7.0 0.00 0.00 0.00 51 1010.6
20260902001036 94 134 1.0 7.0 0.00 0.00 0.00 50 1010.7
20260902000609 94 185 1.0 6.0 0.00 0.00 0.00 50 1010.8
20260902000104 94 186 3.0 7.0 0.00 0.00 0.00 50 1010.8
20260901235539 94 195 3.0 10.0 0.00 0.00 0.00 50 1010.8
20260901235035 95 184 3.0 10.0 0.00 0.00 0.00 49 1010.9
20260901234551 95 193 3.0 9.0 0.00 0.00 0.00 48 1010.9
20260901234048 96 205 3.0 9.0 0.00 0.00 0.00 47 1011.0
20260901233544 96 185 3.0 7.0 0.00 0.00 0.00 46 1010.9
20260901233040 96 204 3.0 7.0 0.00 0.00 0.00 45 1010.9
20260901232537 96 232 3.0 7.0 0.00 0.00 0.00 47 1010.9
20260901232056 96 200 3.0 11.0 0.00 0.00 0.00 46 1011.0
20260901231550 96 200 5.0 11.0 0.00 0.00 0.00 46 1011.0
20260901231046 96 198 4.0 8.0 0.00 0.00 0.00 45 1011.0
20260901230555 96 194 4.0 9.0 0.00 0.00 0.00 45 1011.0
20260901230036 96 207 4.0 11.0 0.00 0.00 0.00 46 1010.9
20260901225533 96 193 6.0 10.0 0.00 0.00 0.00 46 1011.1
20260901225049 96 180 4.0 10.0 0.00 0.00 0.00 46 1011.1
20260901224545 96 170 5.0 10.0 0.00 0.00 0.00 45 1011.2
20260901224102 96 188 4.0 7.0 0.00 0.00 0.00 47 1011.2
20260901223557 96 198 4.0 10.0 0.00 0.00 0.00 46 1011.2
20260901223032 96 190 4.0 14.0 0.00 0.00 0.00 46 1011.1
20260901222547 96 221 6.0 14.0 0.00 0.00 0.00 45 1011.2
20260901222044 96 188 5.0 12.0 0.00 0.00 0.00 46 1011.2
20260901221540 96 252 4.0 12.0 0.00 0.00 0.00 46 1011.3
20260901221038 96 230 4.0 11.0 0.00 0.00 0.00 46 1011.4
20260901220559 96 200 5.0 11.0 0.00 0.00 0.00 46 1011.4
20260901220038 96 252 5.0 12.0 0.00 0.00 0.00 46 1011.4
20260901215537 96 198 4.0 13.0 0.00 0.00 0.00 46 1011.4
20260901215035 96 175 4.0 13.0 0.00 0.00 0.00 45 1011.5
20260901214533 96 230 4.0 8.0 0.00 0.00 0.00 49 1011.5
20260901214032 96 219 3.0 11.0 0.00 0.00 0.00 48 1011.5
20260901213551 96 209 4.0 11.0 0.00 0.00 0.00 48 1011.6
20260901213107 96 192 6.0 11.0 0.00 0.00 0.00 47 1011.5
20260901212543 96 217 5.0 14.0 0.00 0.00 0.00 47 1011.6
20260901212038 96 210 6.0 11.0 0.00 0.00 0.00 48 1011.6
20260901211554 96 200 3.0 10.0 0.00 0.00 0.00 47 1011.6
20260901211112 96 150 6.0 11.0 0.00 0.00 0.00 48 1011.7
20260901210557 96 199 5.0 15.0 0.00 0.00 0.00 47 1011.8
20260901210039 96 224 5.0 12.0 0.00 0.00 0.00 48 1011.7
20260901205534 96 205 6.0 14.0 0.00 0.00 0.00 48 1011.8
20260901205050 96 229 7.0 14.0 0.00 0.00 0.00 48 1011.8
20260901204546 96 200 5.0 11.0 0.00 0.00 0.00 48 1012.0
20260901204042 96 200 4.0 12.0 0.00 0.00 0.00 46 1012.0
20260901203537 96 139 5.0 12.0 0.00 0.00 0.00 49 1012.1
20260901203034 96 209 6.0 11.0 0.00 0.00 0.00 48 1012.1
20260901202549 96 198 6.0 14.0 0.00 0.00 0.00 48 1012.3
20260901202045 96 187 5.0 14.0 0.00 0.00 0.00 49 1012.3
20260901201541 96 219 5.0 10.0 0.00 0.00 0.00 48 1012.3
20260901201058 96 252 5.0 10.0 0.00 0.00 0.00 48 1012.3
20260901200608 96 234 5.0 11.0 0.00 0.00 0.00 47 1012.3
20260901200045 96 212 6.0 11.0 0.00 0.00 0.00 48 1012.5
20260901195540 97 205 4.0 12.0 0.00 0.00 0.00 47 1012.5
20260901195055 96 198 3.0 12.0 0.00 0.00 0.00 50 1012.5